FW7336 Weather Reports


Display with metric or nautical units.
time (UTC)temp
F
wind
direction
speed
MPH
gust
MPH
rain 1hr
in
rain 24hr
in
rain mn
in
humidity
%
barometer
mb
20260510194559 49 115 4.0 6.0 0.00 0.00 0.00 64 1016.3
20260510193104 49 124 5.0 7.0 0.00 0.00 0.00 61 1016.5
20260510191603 50 77 5.0 7.0 0.00 0.00 0.00 61 1016.6
20260510190104 51 91 6.0 9.0 0.00 0.00 0.00 59 1016.7
20260510184552 51 89 6.0 9.0 0.00 0.00 0.00 59 1016.8
20260510183052 51 78 9.0 12.0 0.00 0.00 0.00 57 1017.0
20260510181558 52 82 10.0 13.0 0.00 0.00 0.00 55 1016.9
20260510180103 52 40 7.0 12.0 0.00 0.00 0.00 55 1017.0
20260510174601 52 26 7.0 9.0 0.00 0.00 0.00 54 1017.3
20260510173115 52 36 8.0 11.0 0.00 0.00 0.00 60 1017.5
20260510171553 52 52 9.0 15.0 0.00 0.00 0.00 54 1017.6
20260510170106 52 51 6.0 11.0 0.00 0.00 0.00 55 1017.7
20260510164612 52 324 6.0 12.0 0.00 0.00 0.00 54 1017.8
20260510163052 52 44 12.0 19.0 0.00 0.00 0.00 53 1018.2
20260510161558 52 46 7.0 14.0 0.00 0.00 0.00 53 1018.3
20260510160058 52 25 15.0 19.0 0.00 0.00 0.00 57 1018.5
20260510154557 52 48 10.0 17.0 0.00 0.00 0.00 53 1018.7
20260510153058 52 49 12.0 19.0 0.00 0.00 0.00 56 1018.7
20260510151600 52 38 12.0 17.0 0.00 0.00 0.00 53 1018.9
20260510150100 52 51 18.0 25.0 0.00 0.00 0.00 54 1019.2
20260510144555 52 31 16.0 21.0 0.00 0.00 0.00 54 1019.3
20260510143054 52 54 14.0 19.0 0.00 0.00 0.00 54 1019.5
20260510141556 52 59 12.0 20.0 0.00 0.00 0.00 51 1019.7
20260510140054 52 44 13.0 19.0 0.00 0.00 0.00 56 1019.8
20260510134556 52 34 12.0 24.0 0.00 0.00 0.00 57 1019.9
20260510133100 52 18 13.0 20.0 0.00 0.00 0.00 56 1020.0
20260510131555 52 46 12.0 19.0 0.00 0.00 0.00 55 1020.0
20260510130057 52 56 15.0 19.0 0.00 0.00 0.00 55 1020.1
20260510124553 51 43 12.0 19.0 0.00 0.00 0.00 54 1020.2
20260510123052 52 16 11.0 17.0 0.00 0.00 0.00 58 1020.4
20260510121555 52 38 11.0 22.0 0.00 0.00 0.00 59 1020.5
20260510120055 52 40 14.0 20.0 0.00 0.00 0.00 57 1020.5
20260510114604 52 43 14.0 17.0 0.00 0.00 0.00 57 1020.7
20260510113056 51 17 13.0 22.0 0.00 0.00 0.00 58 1020.8
20260510111555 51 47 11.0 25.0 0.00 0.00 0.00 60 1021.1
20260510110058 51 51 14.0 21.0 0.00 0.00 0.00 60 1021.3
20260510104609 51 51 15.0 22.0 0.00 0.00 0.00 60 1021.6
20260510103057 51 74 11.0 18.0 0.00 0.00 0.00 64 1021.7
20260510101552 50 36 10.0 19.0 0.00 0.00 0.00 65 1021.8
20260510100058 50 29 17.0 23.0 0.00 0.00 0.00 65 1021.9
20260510094555 50 22 11.0 21.0 0.00 0.00 0.00 69 1021.9
20260510093058 50 48 13.0 21.0 0.00 0.00 0.00 69 1022.0
20260510091600 49 57 16.0 20.0 0.00 0.00 0.00 68 1022.0
20260510084558 50 35 9.0 19.0 0.00 0.00 0.00 75 1022.1
20260510083100 48 40 15.0 19.0 0.00 0.00 0.00 72 1022.2
20260510081554 48 41 13.0 19.0 0.00 0.00 0.00 77 1022.2
20260510080057 48 357 13.0 17.0 0.00 0.00 0.00 77 1022.3
20260510074625 47 41 14.0 18.0 0.00 0.00 0.00 79 1022.2
20260510073054 47 21 11.0 18.0 0.00 0.00 0.00 83 1022.2
20260510071559 46 20 10.0 18.0 0.00 0.00 0.00 83 1022.2
20260510070053 46 33 10.0 17.0 0.00 0.00 0.00 83 1022.2
20260510064609 46 32 12.0 16.0 0.00 0.00 0.00 84 1022.2
20260510063101 46 38 11.0 14.0 0.00 0.00 0.00 85 1022.2
20260510061553 46 27 9.0 16.0 0.00 0.00 0.00 85 1022.1
20260510060058 46 1 10.0 15.0 0.00 0.00 0.00 85 1022.2
20260510054553 45 357 9.0 16.0 0.00 0.00 0.00 86 1022.0
20260510053054 45 44 10.0 14.0 0.00 0.00 0.00 86 1022.1
20260510051601 45 352 10.0 15.0 0.00 0.00 0.00 85 1022.2
20260510050053 46 27 8.0 14.0 0.00 0.00 0.00 86 1022.2
20260510044557 46 350 9.0 13.0 0.00 0.00 0.00 86 1022.2
20260510043103 46 338 9.0 13.0 0.00 0.00 0.00 86 1021.9
20260510041612 46 328 7.0 14.0 0.00 0.00 0.00 86 1021.9
20260510040055 46 30 8.0 13.0 0.00 0.00 0.00 87 1021.9
20260510034553 46 7 8.0 12.0 0.00 0.00 0.00 87 1022.1
20260510033056 46 329 8.0 14.0 0.00 0.00 0.00 87 1022.4
20260510031559 47 344 7.0 15.0 0.00 0.00 0.00 87 1022.4
20260510030057 47 349 8.0 14.0 0.00 0.00 0.00 87 1022.5
20260510024559 47 36 9.0 15.0 0.00 0.00 0.00 87 1022.5
20260510023053 47 35 10.0 15.0 0.00 0.00 0.00 87 1022.5
20260510021552 47 12 9.0 14.0 0.00 0.00 0.00 87 1022.5
20260510020055 47 345 10.0 17.0 0.00 0.00 0.00 88 1022.4
20260510014549 48 10 10.0 17.0 0.00 0.00 0.00 88 1022.5
20260510013108 48 15 9.0 14.0 0.00 0.00 0.00 89 1022.4
20260510011552 48 1 10.0 15.0 0.00 0.00 0.00 89 1022.4
20260510010105 48 27 9.0 15.0 0.00 0.00 0.00 89 1022.4
20260510004600 48 335 11.0 16.0 0.00 0.00 0.00 90 1022.4
20260510003056 48 25 9.0 17.0 0.00 0.00 0.00 90 1022.4
20260510001600 48 15 12.0 19.0 0.00 0.00 0.00 90 1022.5
20260510000104 48 12 11.0 17.0 0.00 0.00 0.00 91 1022.7
20260509234605 48 8 12.0 19.0 0.00 0.00 0.00 90 1022.7
20260509233055 48 41 13.0 18.0 0.00 0.00 0.00 91 1022.6
20260509231553 48 16 8.0 16.0 0.00 0.00 0.00 90 1022.6
20260509230054 49 350 9.0 16.0 0.00 0.00 0.00 90 1022.6
20260509224552 49 360 11.0 18.0 0.00 0.00 0.00 89 1022.5
20260509223057 49 10 13.0 18.0 0.00 0.00 0.00 88 1022.3
20260509221612 49 4 10.0 19.0 0.00 0.00 0.00 88 1022.2
20260509220105 50 13 12.0 19.0 0.00 0.00 0.00 89 1022.2
20260509214558 50 25 10.0 17.0 0.00 0.00 0.00 89 1022.3
20260509213102 50 12 13.0 20.0 0.00 0.00 0.00 89 1022.2
20260509211559 50 38 8.0 13.0 0.00 0.00 0.00 89 1022.2
20260509210103 50 29 10.0 15.0 0.00 0.00 0.00 89 1022.2
20260509204559 50 359 7.0 12.0 0.00 0.00 0.00 88 1022.0
20260509203058 50 7 8.0 15.0 0.00 0.00 0.00 88 1021.9
20260509201553 51 356 9.0 13.0 0.00 0.00 0.00 87 1021.9
20260509200058 51 18 7.0 13.0 0.00 0.00 0.00 88 1021.9